Abbotsford, British Columbia

12:26 AM PDT on August 30, 2016 (GMT -0700)
Abbotsford

Weather History for CYXX - October, 2012

Change the Weather History Date:

Friday, October 5, 2012

  Actual Average Record
Temperature  
Mean Temperature 57 °F -  
Max Temperature 71 °F 57 °F 72 °F (2014)
Min Temperature 43 °F 40 °F 33 °F (2007)
Degree Days  
Heating Degree Days 8    
Growing Degree Days 7 (Base 50)    
Moisture  
Dew Point 33 °F    
Average Humidity 41    
Maximum Humidity 62    
Minimum Humidity 13    
Precipitation  
Precipitation 0.00 in 0.22 in - ()
Sea Level Pressure  
Sea Level Pressure 30.29 in    
Wind  
Wind Speed 6 mph ()    
Max Wind Speed 15 mph    
Max Gust Speed 22 mph    
Visibility 15.0 miles    
Events      
Averages and records for this station are not official NWS values.
T = Trace of Precipitation, MM = Missing Value Source: Averaged Metar Reports

Daily Weather History Graph

Daily Weather History Graph

Search for Another Location

Airport or City:

Trip Planner

Search our weather history database for the weather conditions in past years. The results will help you decide how hot, cold, wet, or windy it might be!

Date:

Astronomy

Oct. 05, 2012 Rise Set
Actual Time 7:15 AM PDT 6:38 PM PDT
Civil Twilight 6:44 AM PDT 7:10 PM PDT
Nautical Twilight 6:07 AM PDT 7:46 PM PDT
Astronomical Twilight 5:30 AM PDT 8:23 PM PDT
Moon 9:42 PM PDT (10/5) 12:52 PM PDT (10/5)
Length of Visible Light 12h 25m
Length of Day
11h 22m
Waning Gibbous, 73% of the Moon is Illuminated
Oct 5
Waning Gibbous
Oct 8
Last Quarter
Oct 15
New
Oct 21
First Quarter
Oct 29
Full

Hourly Weather History & Observations

Time (PDT) Temp. Windchill Dew Point Humidity Pressure Visibility Wind Dir Wind Speed Gust Speed Precip Events Conditions
12:00 AM 48.2 °F - 33.8 °F 58% 30.30 in 15.0 mi NNW 6.9 mph - N/A   Clear
1:00 AM 48.2 °F - 33.8 °F 58% 30.30 in 15.0 mi NNW 4.6 mph - N/A   Clear
2:00 AM 46.4 °F - 32.0 °F 57% 30.31 in 15.0 mi Calm Calm - N/A   Clear
3:00 AM 46.4 °F 43.5 °F 33.8 °F 62% 30.31 in 15.0 mi NNE 5.8 mph - N/A   Clear
4:00 AM 50.0 °F - 32.0 °F 50% 30.30 in 15.0 mi NE 5.8 mph - N/A   Clear
5:00 AM 44.6 °F - 32.0 °F 61% 30.31 in 15.0 mi Calm Calm - N/A   Clear
6:00 AM 46.4 °F 43.5 °F 32.0 °F 57% 30.31 in 30.0 mi ENE 5.8 mph - N/A   Clear
7:00 AM 48.2 °F - 32.0 °F 54% 30.32 in 30.0 mi NE 4.6 mph - N/A   Clear
8:00 AM 48.2 °F - 32.0 °F 54% 30.32 in 30.0 mi NE 8.1 mph - N/A   Clear
9:00 AM 57.2 °F - 33.8 °F 41% 30.33 in 30.0 mi East 8.1 mph - N/A   Clear
10:00 AM 60.8 °F - 33.8 °F 36% 30.33 in 30.0 mi East 9.2 mph - N/A   Clear
11:00 AM 65 °F - 31 °F 17% 30.33 in 28 mi NE 12.7 mph - -  
11:00 AM 64.4 °F - 32.0 °F 30% 30.32 in 30.0 mi NE 15.0 mph 21.9 mph N/A   Clear
12:00 PM 66.2 °F - 33.8 °F 30% 30.32 in 30.0 mi East 11.5 mph - N/A   Clear
1:00 PM 68.0 °F - 33.8 °F 28% 30.30 in 30.0 mi East 12.7 mph - N/A   Clear
2:00 PM 69.8 °F - 33.8 °F 27% 30.28 in 30.0 mi East 9.2 mph - N/A   Clear
3:00 PM 69.8 °F - 32.0 °F 25% 30.27 in 30.0 mi East 13.8 mph - N/A   Clear
4:00 PM 71.6 °F - 32.0 °F 23% 30.26 in 30.0 mi NE 8.1 mph - N/A   Clear
5:00 PM 71 °F - 31 °F 13% 30.25 in 28 mi ENE 8.1 mph - -  
5:00 PM 71.6 °F - 32.0 °F 23% 30.25 in 30.0 mi ENE 9.2 mph - N/A   Clear
6:00 PM 69.8 °F - 32.0 °F 25% 30.24 in 30.0 mi NE 4.6 mph - N/A   Clear
7:00 PM 60.8 °F - 35.6 °F 39% 30.23 in 30.0 mi WNW 5.8 mph - N/A   Clear
8:00 PM 57.2 °F - 35.6 °F 44% 30.25 in 15.0 mi NNE 4.6 mph - N/A   Clear
9:00 PM 55.4 °F - 35.6 °F 47% 30.24 in 15.0 mi North 5.8 mph - N/A   Clear
10:00 PM 51.8 °F - 33.8 °F 50% 30.25 in 15.0 mi NNE 3.5 mph - N/A   Clear
11:00 PM 53 °F - 37 °F 43% 30.25 in 15 mi NE 6.9 mph - -  
11:00 PM 53.6 °F - 37.4 °F 54% 30.25 in 15.0 mi NE 8.1 mph - N/A   Clear